Upstream stations:
Downstream station:
SHEF ID: AMAT2 Canadian Rv nr Amarillo, TX
STATION TYPE:
Regulating: Stage = 13.00, Flow = 87096
STAGE RIV-FLOW WTR-TEMP CONDUCT BAT-LOAD
ft cfs F umho/cm volt
Ccp-Rev Ccp-Rev Ccp-Rev Ccp-Rev Ccp-Rev
(US/Central)
05/30 00:00 0.54 0 62.29 5 12.73
05/30 01:00 0.53 0 61.86 5 12.73
05/30 02:00 0.53 0 61.56 5 12.73
05/30 03:00 0.56 0 61.34 5 12.65
05/30 04:00 0.56 0 61.02 5 12.65
05/30 05:00 0.56 0 60.69 5 12.65
05/30 06:00 0.56 0 60.35 5 12.65
05/30 07:00 0.56 0 59.94 5 12.65
05/30 08:00 0.57 0 59.65 5 12.73
05/30 09:00 0.57 0 59.90 5 12.97
05/30 10:00 0.56 0 60.66 5 13.05
05/30 11:00 0.56 0 61.66 5 13.05
05/30 12:00 0.54 0 62.69 5 13.13
05/30 13:00 0.54 0 63.75 5 13.05
05/30 14:00 0.53 0 64.56 5 12.97
05/30 15:00 0.53 0 64.76 5 12.97
05/30 16:00 0.51 0 64.60 5 12.97
05/30 17:00 0.50 0 64.42 5 12.89
05/30 18:00 0.50 0 64.22 5 12.81
05/30 19:00 0.50 0 64.15 5 12.81
05/30 20:00 0.53 0 64.36 5 12.81
05/30 21:00 0.52 0 64.58 5 12.81
05/30 22:00 0.53 0 64.49 5 12.73
05/30 23:00 0.54 0 64.09 5 12.73